Location: Neuvy Saint Sepulchre
(46.5953°N, 1.8122°E)
Time: 15:46:39
(UTC+02:00)

ISS - Pass Details

Date: 05 May 2026
Orbit: 414 x 424 km, 51.6° (Epoch: 21 May)

Event Time Altitude Azimuth Distance (km) Brightness Sun altitude
Exits shadow 04:50:58 - 297° (WNW) 2,045 -0.4 -15.1°
Reaches altitude 10° 04:52:19 10° 300° (WNW) 1,499 -1.1 -14.9°
Maximum altitude 04:55:38 58° 20° (NNE) 493 -3.1 -14.5°
Drops below altitude 10° 04:58:58 10° 101° (ESE) 1,500 -0.5 -14.1°
Sets 05:01:05 0° 106° (ESE) 2,365 0.5 -13.8°
